San Diego, CA

2:39 PM PST on February 21, 2017 (GMT -0800)
Miramar Marine Corps Air Station-Mitscher

Weather History for KNKX - December, 2013

Change the Weather History Date:

Wednesday, December 4, 2013

  Actual Average Record
Temperature  
Mean Temperature 52 °F -  
Max Temperature 60 °F 64 °F 78 °F (2016)
Min Temperature 44 °F 43 °F 35 °F (2011)
Degree Days  
Heating Degree Days 13    
Growing Degree Days 2 (Base 50)    
Moisture  
Dew Point 38 °F    
Average Humidity 59    
Maximum Humidity 80    
Minimum Humidity 38    
Precipitation  
Precipitation 0.00 in - - ()
Sea Level Pressure  
Sea Level Pressure 29.91 in    
Wind  
Wind Speed 8 mph (WSW)    
Max Wind Speed 15 mph    
Max Gust Speed -    
Visibility 10 miles    
Events      
Averages and records for this station are not official NWS values.
T = Trace of Precipitation, MM = Missing Value Source: NWS Daily Summary

Daily Weather History Graph

Daily Weather History Graph

Search for Another Location

Airport or City:

Trip Planner

Search our weather history database for the weather conditions in past years. The results will help you decide how hot, cold, wet, or windy it might be!

Date:

Astronomy

Dec. 04, 2013 Rise Set
Actual Time 6:35 AM PST 4:41 PM PST
Civil Twilight 6:08 AM PST 5:08 PM PST
Nautical Twilight 5:38 AM PST 5:39 PM PST
Astronomical Twilight 5:08 AM PST 6:09 PM PST
Moon 8:10 AM PST (12/4) 6:54 PM PST (12/4)
Length of Visible Light 11h 00m
Length of Day
10h 05m
Waxing Crescent, 5% of the Moon is Illuminated
Dec 4
Waxing Crescent
Dec 9
First Quarter
Dec 17
Full
Dec 25
Last Quarter
Jan 1
New

Hourly Weather History & Observations

Time (PST) Temp. Windchill Dew Point Humidity Pressure Visibility Wind Dir Wind Speed Gust Speed Precip Events Conditions
12:55 AM 55.9 °F - 50.0 °F 80% 29.82 in 10.0 mi WSW 10.4 mph - 0.00 in   Mostly Cloudy
1:55 AM 55.9 °F - 46.0 °F 69% 29.82 in 10.0 mi West 15.0 mph - N/A   Mostly Cloudy
2:55 AM 55.0 °F - 44.1 °F 67% 29.83 in 10.0 mi West 11.5 mph - N/A   Mostly Cloudy
3:55 AM 55.0 °F - 41.0 °F 59% 29.83 in 10.0 mi West 9.2 mph - N/A   Mostly Cloudy
4:55 AM 52.0 °F - 39.9 °F 63% 29.85 in 10.0 mi West 6.9 mph - N/A   Scattered Clouds
5:55 AM 51.1 °F - 39.0 °F 63% 29.87 in 10.0 mi West 6.9 mph - N/A   Scattered Clouds
6:55 AM 50.0 °F - 39.0 °F 66% 29.90 in 10.0 mi WSW 6.9 mph - N/A   Mostly Cloudy
7:55 AM 53.1 °F - 39.9 °F 61% 29.92 in 10.0 mi Variable 4.6 mph - N/A   Mostly Cloudy
8:55 AM 57.0 °F - 37.0 °F 47% 29.93 in 10.0 mi WSW 8.1 mph - N/A   Scattered Clouds
9:55 AM 57.0 °F - 37.0 °F 47% 29.94 in 10.0 mi Variable 5.8 mph - N/A   Scattered Clouds
10:55 AM 59.0 °F - 36.0 °F 42% 29.93 in 10.0 mi Variable 5.8 mph - N/A   Scattered Clouds
11:55 AM 59.0 °F - 36.0 °F 42% 29.91 in 10.0 mi Variable 3.5 mph - N/A   Scattered Clouds
12:55 PM 59.0 °F - 34.0 °F 39% 29.91 in 10.0 mi West 10.4 mph - N/A   Scattered Clouds
1:55 PM 60.1 °F - 34.0 °F 38% 29.90 in 10.0 mi West 10.4 mph - N/A   Mostly Cloudy
2:55 PM 59.0 °F - 36.0 °F 42% 29.90 in 10.0 mi WNW 9.2 mph - N/A   Mostly Cloudy
3:55 PM 55.9 °F - 37.9 °F 51% 29.91 in 10.0 mi West 9.2 mph - N/A   Scattered Clouds
4:55 PM 53.1 °F - 37.9 °F 57% 29.92 in 10.0 mi WSW 5.8 mph - N/A   Scattered Clouds
5:55 PM 48.0 °F - 36.0 °F 63% 29.94 in 10.0 mi SSW 4.6 mph - N/A   Scattered Clouds
6:55 PM 48.9 °F - 37.0 °F 64% 29.95 in 10.0 mi SSW 5.8 mph - N/A   Scattered Clouds
7:55 PM 44.1 °F 42.5 °F 35.1 °F 71% 29.96 in 10.0 mi ESE 3.5 mph - N/A   Scattered Clouds
8:55 PM 44.1 °F 42.5 °F 36.0 °F 73% 29.96 in 10.0 mi East 3.5 mph - N/A   Partly Cloudy
9:55 PM 46.0 °F 43.9 °F 37.0 °F 71% 29.97 in 10.0 mi ESE 4.6 mph - N/A   Mostly Cloudy
10:55 PM 48.0 °F - 37.9 °F 68% 29.97 in 10.0 mi SE 3.5 mph - N/A   Mostly Cloudy
11:55 PM 46.9 °F - 37.9 °F 71% 29.96 in 10.0 mi ESE 4.6 mph - N/A   Mostly Cloudy